EW8063 Weather Reports


time (UTC)temp
F
wind
direction
speed
knots
gust
knots
rain 1hr
in
rain 24hr
in
rain mn
in
humidity
%
barometer
mb
20260503033027 78 142 1.7 4.3 0.00 0.00 0.00 89 1017.5
20260503031527 78 160 1.7 5.2 0.00 0.00 0.00 88 1017.5
20260503030023 78 152 1.7 5.2 0.00 0.00 0.00 87 1017.7
20260503024523 78 141 0.9 3.5 0.00 0.00 0.00 87 1017.7
20260503023022 78 195 1.7 3.5 0.00 0.00 0.00 87 1017.7
20260503021522 78 178 1.7 4.3 0.00 0.00 0.00 86 1017.5
20260503020020 78 153 0.0 1.7 0.00 0.00 0.00 86 1017.5
20260503014519 79 139 0.0 1.7 0.00 0.00 0.00 85 1017.6
20260503013016 79 186 1.7 4.3 0.00 0.00 0.00 85 1017.4
20260503011515 79 190 1.7 4.3 0.00 0.00 0.00 85 1017.2
20260503010114 79 177 1.7 4.3 0.00 0.00 0.00 85 1017.2
20260503004543 80 180 2.6 4.3 0.00 0.00 0.00 84 1016.9
20260503003012 80 184 1.7 3.5 0.00 0.00 0.00 84 1016.8
20260503001514 80 200 1.7 3.5 0.00 0.00 0.00 83 1016.6
20260503000014 81 205 0.9 3.5 0.00 0.00 0.00 82 1016.4
20260502234511 81 204 2.6 5.2 0.00 0.00 0.00 81 1016.4
20260502233015 81 209 2.6 5.2 0.00 0.00 0.00 80 1016.1
20260502231512 82 200 2.6 6.1 0.00 0.00 0.00 79 1015.8
20260502230004 82 207 2.6 6.1 0.00 0.00 0.00 78 1015.7
20260502224504 82 217 2.6 6.1 0.00 0.00 0.00 77 1015.6
20260502223004 83 216 3.5 7.8 0.00 0.00 0.00 77 1015.4
20260502221503 83 214 6.1 8.7 0.00 0.00 0.00 75 1015.3
20260502220033 84 215 4.3 10.4 0.00 0.00 0.00 75 1015.1
20260502214542 84 234 6.1 10.4 0.00 0.00 0.00 75 1014.9
20260502213002 85 223 7.0 10.4 0.00 0.00 0.00 72 1014.9
20260502211504 86 213 6.1 11.3 0.00 0.00 0.00 71 1014.9
20260502210059 86 198 6.1 13.0 0.00 0.00 0.00 72 1014.9
20260502204559 86 215 7.0 11.3 0.00 0.00 0.00 72 1014.9
20260502203108 87 232 5.2 10.4 0.00 0.00 0.00 71 1014.8
20260502201620 87 198 7.0 13.0 0.00 0.00 0.00 71 1014.8
20260502200055 87 211 7.0 13.0 0.00 0.00 0.00 72 1014.8
20260502194559 87 205 7.8 13.0 0.00 0.00 0.00 71 1014.9
20260502193054 87 196 7.8 13.0 0.00 0.00 0.00 71 1014.9
20260502191553 88 196 7.0 11.3 0.00 0.00 0.00 69 1015.0
20260502190050 88 202 7.8 13.0 0.00 0.00 0.00 70 1015.1
20260502184549 87 205 7.8 13.9 0.00 0.00 0.00 70 1015.3
20260502183053 87 202 7.8 13.0 0.00 0.00 0.00 71 1015.4
20260502181548 86 195 8.7 12.2 0.00 0.00 0.00 72 1015.6
20260502163015 84 155 4.3 10.4 0.00 0.00 0.00 78 1016.2
20260502161507 85 146 4.3 10.4 0.00 0.00 0.00 77 1016.3
20260502151535 85 146 5.2 10.4 0.00 0.00 0.00 76 1016.6
20260502123014 80 172 4.3 10.4 0.00 0.00 0.00 84 1016.6
20260502121507 79 150 5.2 9.6 0.00 0.00 0.00 84 1016.6
20260502114636 78 166 4.3 10.4 0.00 0.00 0.00 87 1016.3
20260502113058 78 153 4.3 8.7 0.00 0.00 0.00 89 1016.2
20260502111554 77 148 4.3 9.6 0.00 0.00 0.00 89 1016.0
20260502110051 77 142 4.3 9.6 0.00 0.00 0.00 90 1015.8
20260502104547 77 131 4.3 9.6 0.00 0.00 0.00 90 1015.8
20260502103044 77 136 3.5 8.7 0.00 0.00 0.00 90 1015.8
20260502101559 77 158 5.2 9.6 0.00 0.00 0.00 89 1015.6
20260502091534 76 155 4.3 8.7 0.00 0.00 0.00 89 1015.1
20260502070046 77 163 4.3 9.6 0.00 0.00 0.00 89 1015.2
20260502064607 77 155 5.2 10.4 0.00 0.00 0.00 89 1015.3
20260502063047 77 165 3.5 8.7 0.00 0.00 0.00 89 1015.4
20260502061536 77 168 3.5 10.4 0.00 0.00 0.00 89 1015.3
20260502060044 77 144 4.3 8.7 0.00 0.00 0.00 89 1015.5
20260502054534 77 165 4.3 9.6 0.00 0.00 0.00 88 1015.8
20260502053034 77 145 3.5 7.8 0.00 0.00 0.00 88 1015.9
20260502051505 77 154 2.6 7.8 0.00 0.00 0.00 88 1016.0
20260502050004 77 168 3.5 10.4 0.00 0.00 0.00 88 1016.1
20260502044500 77 186 3.5 8.7 0.00 0.00 0.00 88 1016.2
20260502043001 77 132 3.5 7.8 0.00 0.00 0.00 88 1016.2
20260502041605 77 163 3.5 7.8 0.00 0.00 0.00 88 1016.4
20260502040100 77 138 2.6 8.7 0.00 0.00 0.00 88 1016.4
20260502034559 77 167 3.5 8.7 0.00 0.00 0.00 88 1016.3